Weather History for Grand Rapids, MI

Change the Weather History Date:

Thursday, August 29, 2013

  Actual Average Record
Temperature  
Mean Temperature 76 °F 69 °F  
Max Temperature 87 °F 79 °F 95 °F (1953)
Min Temperature 65 °F 59 °F 41 °F (1982)
Degree Days  
Heating Degree Days 0 1  
Month to date heating degree days 15 7  
Since 1 June heating degree days 66 58  
Since 1 July heating degree days 26 13  
Cooling Degree Days 11 5  
Month to date cooling degree days 159 184  
Year to date cooling degree days 648 615  
Since 1 June cooling degree days 566 568  
Growing Degree Days 26 (Base 50)    
Moisture  
Dew Point 66 °F    
Average Humidity 71    
Maximum Humidity 93    
Minimum Humidity 48    
Precipitation  
Precipitation 0.00 in 0.12 in 1.60 in (1955)
Month to date precipitation 1.90 3.34  
Year to date precipitation 32.32 24.47  
Snow  
Snow 0.00 in 0.00 in 0.00 in ()
Month to date snowfall 0.0 0.0  
Since 1 June snowfall 0.0 0.0  
Since 1 July snowfall 0.0 0.0  
Snow Depth 0.00 in    
Sea Level Pressure  
Sea Level Pressure 30.06 in    
Wind  
Wind Speed 2 mph (ESE)    
Max Wind Speed 8 mph    
Max Gust Speed 13 mph    
Visibility 8 miles    
Events Fog    
T = Trace of Precipitation, MM = Missing Value Source: NWS Daily Summary

Daily Weather History Graph

Daily Weather History Graph

Search for Another Location

Airport:

Trip Planner

Search our weather history database for the weather conditions in past years. The results will help you decide how hot, cold, wet, or windy it might be!

Date:

Astronomy

Aug. 29, 2013 Rise Set
Actual Time 7:03 AM EDT 8:21 PM EDT
Civil Twilight 6:34 AM EDT 8:50 PM EDT
Nautical Twilight 5:59 AM EDT 9:25 PM EDT
Astronomical Twilight 5:21 AM EDT 10:02 PM EDT
Moon 12:50 AM EDT (8/29) 3:54 PM EDT (8/29)
Length of Visible Light 14h 16m
Length of Day
13h 17m
Last Quarter, 38% of the Moon is Illuminated
Aug 29
Last Quarter
Sep 5
New
Sep 12
First Quarter
Sep 19
Full
Sep 26
Last Quarter

Hourly Weather History & Observations

Time (EDT) Temp. Heat Index Dew Point Humidity Pressure Visibility Wind Dir Wind Speed Gust Speed Precip Events Conditions
12:53 AM 70.0 °F - 66.9 °F 90% 30.04 in 10.0 mi Calm Calm - N/A   Clear
1:53 AM 69.1 °F - 66.0 °F 90% 30.05 in 9.0 mi Calm Calm - N/A   Clear
2:53 AM 70.0 °F - 66.9 °F 90% 30.04 in 9.0 mi Calm Calm - N/A   Clear
3:53 AM 69.1 °F - 66.0 °F 90% 30.05 in 8.0 mi Calm Calm - N/A   Clear
4:53 AM 68.0 °F - 64.9 °F 90% 30.05 in 6.0 mi Calm Calm - N/A   Clear
5:26 AM 68.0 °F - 64.4 °F 88% 30.07 in 2.0 mi Calm Calm - N/A   Clear
5:36 AM 68.0 °F - 64.4 °F 88% 30.07 in 0.8 mi Calm Calm - N/A   Clear
5:47 AM 66.2 °F - 64.4 °F 94% 30.07 in 7.0 mi Calm Calm - N/A   Partly Cloudy
5:48 AM 66.9 °F - 64.9 °F 93% 30.06 in 7.0 mi Calm Calm - N/A   Partly Cloudy
5:53 AM 66.9 °F - 64.9 °F 93% 30.06 in 7.0 mi Calm Calm - N/A   Partly Cloudy
6:01 AM 66.2 °F - 64.4 °F 94% 30.07 in 7.0 mi Calm Calm - N/A Fog Patches of Fog
6:45 AM 64.4 °F - 62.6 °F 94% 30.08 in 5.0 mi Calm Calm - N/A   Partly Cloudy
6:53 AM 66.0 °F - 63.0 °F 90% 30.07 in 4.0 mi Calm Calm - N/A   Partly Cloudy
7:50 AM 66.2 °F - 64.4 °F 94% 30.09 in 4.0 mi ESE 5.8 mph - N/A   Partly Cloudy
7:53 AM 66.9 °F - 64.0 °F 90% 30.08 in 2.0 mi ESE 3.5 mph - N/A   Partly Cloudy
8:44 AM 69.8 °F - 66.2 °F 88% 30.10 in 4.0 mi Calm Calm - N/A   Partly Cloudy
8:53 AM 71.1 °F - 66.0 °F 84% 30.09 in 4.0 mi Calm Calm - N/A   Partly Cloudy
9:53 AM 75.9 °F - 66.9 °F 74% 30.10 in 10.0 mi East 4.6 mph - N/A   Partly Cloudy
10:53 AM 79.0 °F - 66.0 °F 64% 30.10 in 10.0 mi ENE 4.6 mph - N/A   Partly Cloudy
11:53 AM 81.0 °F 83.0 °F 66.0 °F 60% 30.10 in 10.0 mi East 5.8 mph - N/A   Partly Cloudy
12:53 PM 82.0 °F 84.5 °F 66.9 °F 60% 30.09 in 10.0 mi Variable 4.6 mph - N/A   Scattered Clouds
1:53 PM 84.0 °F 87.0 °F 68.0 °F 58% 30.08 in 10.0 mi NE 4.6 mph - N/A   Scattered Clouds
2:53 PM 86.0 °F 87.6 °F 64.9 °F 49% 30.07 in 10.0 mi Variable 3.5 mph - N/A   Scattered Clouds
3:53 PM 86.0 °F 87.6 °F 64.9 °F 49% 30.05 in 10.0 mi Calm Calm - N/A   Partly Cloudy
4:53 PM 86.0 °F 88.2 °F 66.0 °F 51% 30.04 in 10.0 mi East 4.6 mph - N/A   Partly Cloudy
5:53 PM 86.0 °F 87.6 °F 64.9 °F 49% 30.03 in 10.0 mi East 5.8 mph - N/A   Partly Cloudy
6:53 PM 84.9 °F 86.1 °F 64.0 °F 49% 30.03 in 10.0 mi ESE 5.8 mph - N/A   Scattered Clouds
7:53 PM 82.0 °F 84.1 °F 66.0 °F 58% 30.03 in 10.0 mi ESE 3.5 mph - N/A   Partly Cloudy
8:53 PM 78.1 °F - 66.9 °F 68% 30.03 in 10.0 mi ESE 4.6 mph - N/A   Partly Cloudy
9:53 PM 75.9 °F - 66.9 °F 74% 30.02 in 10.0 mi SSE 3.5 mph - N/A   Clear
10:53 PM 73.9 °F - 66.9 °F 79% 30.01 in 10.0 mi Calm Calm - N/A   Clear
11:53 PM 72.0 °F - 66.9 °F 84% 30.01 in 10.0 mi Calm Calm - N/A   Clear